Temp
69 72 66 68 56 52 48 54 56 61 59 63 66 63 60 61 64 55 67 73 72 72 74 74 75 77 77 76 76 76 76 77 77 77 77 77 76 76 76 76 76 76 77 76 75 74 73 72 72
68 76 68 59 51 45 49 55 58 62 64 64 65 63 60 62 68 67 67 73 74 73 73 74 74 76 76 76 76 76 76 77 77 77 77 77 76 76 77 76 75 76 75 75 74 73 72 72 71
72 74 61 54 49 47 49 55 56 63 65 63 61 65 62 64 68 68 69 73 74 71 73 74 73 75 76 76 76 76 76 76 77 77 77 77 76 76 75 75 75 75 75 74 74 73 72 71 71
69 66 61 53 48 53 55 56 60 61 63 65 63 60 65 67 69 70 73 73 72 70 73 72 73 75 75 75 76 76 76 76 77 77 77 77 77 76 76 75 75 74 74 74 73 72 71 70 70
66 59 51 48 52 57 58 61 62 60 60 62 64 61 63 67 68 70 70 72 70 70 71 71 73 74 75 75 75 75 75 76 76 76 76 76 76 76 75 75 75 73 73 73 73 71 70 69 69
59 58 48 45 51 59 58 63 61 61 62 61 59 58 60 65 65 67 69 69 71 70 69 71 70 71 73 74 74 74 75 75 75 76 76 76 75 75 74 73 73 74 73 72 71 70 69 68 67
56 52 46 47 52 56 60 62 58 58 61 61 63 56 60 62 66 68 67 67 69 70 68 69 70 70 69 71 71 72 73 74 74 74 75 74 74 74 73 72 73 73 72 72 70 69 68 67 66
59 55 48 48 52 54 61 62 64 60 62 65 64 57 57 65 68 68 67 66 66 68 67 67 68 69 68 72 68 69 70 71 72 71 70 69 70 70 70 69 70 72 71 71 69 68 68 67 65
61 50 46 51 55 55 62 61 64 65 61 62 67 64 68 64 65 61 59 63 63 66 66 65 66 67 68 67 68 66 67 68 68 68 67 65 65 65 65 64 68 70 70 70 69 68 67 65 63
55 47 52 58 55 55 60 57 58 61 61 60 62 66 65 64 60 62 60 61 61 62 64 65 64 66 66 70 68 66 67 67 67 66 67 67 63 62 63 62 65 67 67 69 68 67 64 59 52
56 51 57 63 62 61 60 60 60 58 55 62 62 64 67 65 64 63 61 62 62 63 63 64 65 64 65 68 65 66 67 65 65 68 67 66 66 63 59 57 58 58 60 58 61 58 53 52 51
52 61 61 62 64 61 57 60 59 58 63 66 65 66 64 67 67 65 63 64 63 64 65 64 65 64 64 66 64 65 66 64 63 66 67 66 65 61 56 55 54 54 53 53 51 50 50 50 52
55 57 62 62 62 60 62 59 57 59 66 65 66 67 65 65 65 66 65 66 65 64 65 63 63 66 66 63 62 62 64 64 65 62 64 66 66 62 55 54 54 53 52 51 49 49 49 50 52
56 56 58 60 61 60 59 57 57 62 61 64 65 63 63 64 61 59 60 59 60 62 63 64 63 66 64 64 62 61 61 62 61 62 62 62 62 62 58 54 54 53 52 50 49 48 47 48 49
57 53 56 58 58 58 59 53 56 63 62 62 61 60 63 58 57 54 56 55 55 57 59 60 63 62 62 62 61 61 61 61 60 61 62 62 60 59 56 54 53 54 52 50 48 48 47 46 48
52 48 44 57 57 56 56 48 59 64 60 62 61 58 55 54 54 54 54 54 54 54 55 57 61 61 61 60 60 61 60 60 60 60 60 62 61 60 55 53 52 51 50 49 48 46 45 45 45
45 41 44 51 58 55 52 47 59 63 58 60 56 54 53 52 52 52 52 52 52 52 53 54 56 56 59 60 59 59 60 59 59 59 58 61 60 59 59 53 51 51 49 47 49 44 45 42 43
42 41 46 45 54 52 47 49 54 59 59 58 51 49 50 49 49 50 50 51 51 51 52 53 55 55 55 55 55 55 56 56 57 57 58 61 60 58 57 53 51 49 47 46 45 45 43 43 43
46 44 43 48 56 49 51 49 54 58 57 56 49 49 48 48 50 50 49 49 49 49 49 50 51 52 53 51 51 52 52 53 54 58 60 60 59 58 55 53 51 48 48 47 46 44 44 42 41
47 44 43 49 54 50 50 49 54 56 56 54 50 47 47 47 47 48 47 46 46 47 47 48 49 50 51 51 50 50 49 49 51 55 57 59 58 57 55 53 51 47 45 45 44 44 41 42 42
45 43 44 45 48 48 44 42 49 54 51 51 49 48 47 45 45 45 45 44 45 44 44 47 48 48 48 49 51 49 49 48 48 49 53 54 56 56 54 53 51 49 49 46 46 44 44 41 40
42 49 48 46 40 36 44 32 44 48 45 46 45 43 43 44 45 45 44 44 44 43 44 45 46 47 48 47 46 44 43 42 44 45 46 48 50 52 54 53 52 49 48 47 43 45 44 41 39
46 48 45 44 39 35 38 32 40 44 41 42 41 43 42 42 43 43 43 44 43 42 41 42 45 45 45 45 44 43 41 42 42 44 44 45 46 47 48 48 51 49 47 46 45 45 41 41 41
49 45 43 40 37 27 37 36 37 42 44 41 42 42 42 42 42 42 43 43 42 41 40 41 42 43 44 43 43 42 40 40 40 40 40 41 43 43 44 45 44 46 47 46 45 45 45 45 41
45 39 30 26 24 27 38 34 40 44 46 45 41 39 40 40 40 40 40 39 40 39 39 42 40 39 40 41 40 40 40 39 39 39 38 37 38 40 40 40 40 40 42 42 41 40 39 41 44
42 43 30 22 23 26 36 30 40 41 42 42 42 40 40 39 40 40 39 38 39 39 38 38 37 37 38 38 38 38 38 38 39 38 37 37 37 37 38 38 38 39 39 40 40 38 37 37 39
42 38 42 33 24 23 32 38 40 41 39 40 39 39 38 39 39 39 40 38 38 38 38 37 36 36 36 37 36 35 35 35 35 34 34 35 35 39 37 37 36 36 37 37 37 36 35 35 36
44 46 33 31 18 18 28 31 34 36 36 37 36 36 37 39 39 40 39 39 39 38 38 38 38 36 36 36 36 36 35 35 34 34 32 32 33 34 33 35 35 35 35 35 34 33 34 34 34
40 36 38 38 32 23 19 28 39 38 37 35 36 38 37 38 38 38 38 38 38 38 39 38 37 37 37 38 37 37 36 35 34 32 32 31 31 31 33 33 32 32 33 34 33 33 33 33 34
42 39 39 28 26 27 29 31 40 38 38 39 37 39 38 38 38 40 40 38 38 39 39 38 38 36 37 38 36 35 36 35 32 32 32 31 30 30 30 31 31 31 32 32 32 32 33 33 33
MSLP
1014.46 1013.93 1014.45 1014.56 1016.02 1016.45 1015.84 1014.99 1014.11 1013.80 1013.60 1013.41 1013.34 1013.46 1013.79 1013.86 1013.99 1014.79 1014.26 1014.13 1014.42 1014.98 1015.36 1015.66 1016.06 1016.35 1016.62 1017.00 1017.39 1017.72 1017.95 1018.10 1018.28 1018.48 1018.73 1018.94 1019.18 1019.32 1019.43 1019.52 1019.55 1019.65 1019.87 1020.01 1020.21 1020.38 1020.66 1020.79 1020.94
1014.50 1014.07 1014.57 1015.40 1016.34 1016.50 1015.83 1014.52 1013.93 1013.43 1013.20 1013.12 1013.21 1013.27 1013.50 1013.60 1013.55 1014.16 1014.28 1014.14 1014.24 1014.77 1015.20 1015.51 1015.79 1016.18 1016.58 1016.94 1017.26 1017.56 1017.87 1018.17 1018.37 1018.54 1018.70 1018.86 1019.12 1019.30 1019.46 1019.62 1019.76 1019.92 1020.10 1020.26 1020.37 1020.55 1020.72 1020.86 1020.92
1014.63 1014.54 1015.67 1015.98 1016.40 1015.79 1015.01 1014.30 1013.70 1013.39 1013.09 1013.10 1013.25 1013.06 1013.14 1013.32 1013.58 1013.84 1013.90 1013.95 1014.20 1014.81 1015.10 1015.52 1015.98 1016.22 1016.42 1016.75 1017.11 1017.46 1017.79 1018.09 1018.30 1018.54 1018.81 1019.03 1019.19 1019.35 1019.53 1019.69 1019.92 1020.15 1020.36 1020.45 1020.61 1020.77 1020.88 1021.04 1021.03
1014.81 1015.11 1015.94 1016.04 1015.84 1014.65 1014.18 1013.79 1013.22 1013.25 1013.28 1013.14 1013.26 1013.48 1013.14 1012.90 1013.16 1013.48 1013.71 1013.94 1014.28 1014.80 1015.05 1015.43 1015.91 1016.30 1016.60 1016.76 1016.95 1017.23 1017.57 1017.86 1018.12 1018.40 1018.71 1019.00 1019.26 1019.49 1019.69 1019.94 1020.01 1020.29 1020.51 1020.58 1020.82 1020.92 1021.06 1021.22 1021.23
1015.22 1016.00 1016.48 1016.30 1015.25 1014.14 1013.70 1013.30 1013.09 1013.18 1013.22 1013.28 1013.13 1013.36 1013.34 1013.39 1013.55 1013.48 1013.68 1013.96 1014.27 1014.71 1014.83 1015.26 1015.69 1016.05 1016.41 1016.75 1017.09 1017.41 1017.67 1017.80 1017.95 1018.22 1018.54 1018.84 1019.15 1019.42 1019.85 1020.01 1020.27 1020.48 1020.71 1020.85 1020.95 1021.15 1021.33 1021.35 1021.41
1015.96 1016.33 1016.84 1016.44 1015.13 1013.98 1013.59 1013.02 1013.10 1013.23 1013.13 1013.25 1013.34 1013.45 1013.70 1013.71 1014.02 1013.90 1013.78 1013.96 1014.04 1014.54 1014.75 1014.97 1015.29 1015.67 1016.03 1016.39 1016.79 1017.16 1017.57 1017.87 1018.06 1018.18 1018.41 1018.70 1019.00 1019.33 1019.81 1020.24 1020.30 1020.39 1020.74 1020.94 1021.15 1021.25 1021.40 1021.66 1021.61
1016.19 1016.85 1016.84 1015.96 1014.90 1014.00 1013.55 1013.04 1013.19 1013.37 1013.34 1013.31 1013.23 1013.65 1013.80 1013.86 1013.89 1014.00 1014.06 1014.17 1014.20 1014.24 1014.57 1014.90 1015.19 1015.58 1015.97 1016.33 1016.63 1016.95 1017.29 1017.62 1017.92 1018.15 1018.36 1018.69 1018.98 1019.26 1019.62 1020.07 1020.32 1020.49 1020.75 1021.02 1021.26 1021.40 1021.45 1021.70 1021.84
1016.05 1016.88 1016.74 1015.74 1014.94 1014.11 1013.49 1013.20 1013.13 1013.34 1013.34 1013.30 1013.38 1013.70 1013.84 1013.45 1013.72 1013.78 1013.95 1014.16 1014.34 1014.44 1014.48 1014.78 1015.25 1015.58 1015.81 1015.91 1016.30 1016.63 1016.91 1017.25 1017.58 1017.89 1018.14 1018.53 1018.98 1019.28 1019.63 1020.13 1020.44 1020.62 1020.87 1021.01 1021.27 1021.50 1021.76 1021.77 1021.94
1015.92 1016.94 1016.84 1015.83 1015.04 1014.50 1013.87 1013.77 1013.59 1013.41 1013.59 1013.59 1013.41 1013.40 1013.14 1013.58 1013.84 1014.14 1014.24 1014.21 1014.28 1014.56 1014.68 1014.71 1014.88 1015.21 1015.55 1015.92 1016.10 1016.38 1016.59 1016.86 1017.22 1017.57 1017.93 1018.32 1018.81 1019.16 1019.46 1019.95 1020.42 1020.66 1020.94 1021.10 1021.39 1021.62 1021.71 1021.85 1022.04
1016.49 1017.13 1016.36 1015.60 1015.19 1014.87 1014.53 1014.46 1014.54 1014.22 1014.17 1013.94 1013.70 1013.17 1013.17 1013.71 1014.12 1014.29 1014.40 1014.45 1014.43 1014.47 1014.54 1014.69 1014.79 1014.97 1015.24 1015.54 1015.94 1016.34 1016.66 1016.86 1017.06 1017.42 1017.84 1018.20 1018.67 1019.04 1019.36 1019.74 1020.17 1020.49 1020.77 1020.99 1021.25 1021.43 1021.79 1022.11 1022.43
1016.20 1016.47 1015.92 1015.15 1015.03 1014.87 1014.74 1014.64 1014.66 1014.81 1014.79 1014.17 1014.00 1013.55 1013.31 1013.49 1013.82 1013.95 1013.96 1014.07 1013.89 1013.63 1013.75 1013.98 1014.29 1014.51 1014.87 1015.03 1015.45 1015.91 1016.23 1016.58 1016.86 1017.13 1017.55 1018.00 1018.43 1018.86 1019.24 1019.60 1019.95 1020.37 1020.60 1020.99 1021.25 1021.57 1021.99 1022.21 1022.46
1016.10 1015.86 1015.81 1015.53 1015.24 1015.23 1015.09 1014.96 1015.10 1015.08 1014.37 1014.09 1013.64 1013.59 1013.46 1013.54 1013.45 1013.41 1013.47 1013.18 1013.07 1013.08 1013.02 1013.15 1013.47 1014.01 1014.36 1014.72 1015.16 1015.46 1015.83 1016.24 1016.59 1016.71 1017.25 1017.74 1018.18 1018.68 1019.33 1019.71 1020.02 1020.33 1020.66 1021.10 1021.55 1021.98 1022.26 1022.49 1022.60
1015.81 1015.87 1015.77 1015.51 1015.30 1015.20 1015.16 1015.27 1015.45 1014.84 1013.85 1013.80 1013.47 1013.42 1013.58 1013.71 1013.51 1013.41 1013.12 1012.84 1012.67 1012.71 1012.40 1012.47 1012.87 1013.26 1013.50 1014.19 1014.69 1015.19 1015.46 1015.86 1016.18 1016.70 1016.85 1017.18 1017.72 1018.17 1018.95 1019.43 1019.80 1020.20 1020.59 1020.89 1021.44 1021.75 1022.12 1022.38 1022.47
1016.08 1016.01 1015.94 1015.61 1015.16 1015.13 1015.19 1015.10 1015.21 1014.20 1013.86 1013.85 1013.70 1013.82 1013.87 1014.42 1014.82 1014.81 1014.58 1014.72 1014.34 1014.01 1013.36 1012.54 1012.49 1012.74 1012.99 1013.69 1014.18 1014.70 1015.22 1015.51 1015.92 1016.30 1016.66 1017.12 1017.40 1017.85 1018.59 1019.08 1019.48 1019.98 1020.34 1020.74 1021.14 1021.61 1022.03 1022.32 1022.45
1016.09 1016.28 1016.11 1014.91 1014.84 1014.75 1014.56 1015.29 1014.95 1014.06 1013.96 1013.78 1013.80 1014.16 1014.67 1015.78 1015.98 1016.36 1016.47 1016.06 1015.81 1015.21 1014.47 1013.92 1013.31 1012.84 1013.16 1013.37 1013.71 1014.19 1014.78 1015.23 1015.68 1015.98 1016.33 1016.65 1017.02 1017.64 1018.50 1019.01 1019.25 1019.32 1019.72 1020.36 1021.08 1021.51 1021.85 1022.27 1022.42
1016.49 1016.71 1016.52 1015.00 1014.86 1014.85 1014.80 1015.01 1014.52 1013.94 1014.19 1013.95 1013.94 1014.73 1016.17 1017.04 1017.50 1017.76 1017.44 1017.02 1016.64 1016.00 1015.26 1014.52 1013.98 1013.62 1013.27 1013.42 1013.63 1013.87 1014.27 1014.77 1015.21 1015.65 1015.94 1016.20 1016.72 1017.18 1018.01 1018.72 1019.21 1019.53 1020.06 1020.36 1020.71 1021.24 1021.81 1022.10 1022.37
1017.20 1017.00 1016.57 1015.71 1014.85 1015.06 1015.34 1015.45 1014.68 1013.93 1014.33 1014.21 1014.76 1016.08 1017.10 1017.97 1018.35 1018.61 1018.33 1017.95 1017.57 1017.04 1016.47 1015.60 1014.85 1014.55 1014.28 1014.24 1014.17 1014.20 1014.31 1014.61 1015.00 1015.33 1015.63 1015.91 1016.41 1016.98 1017.44 1018.23 1018.89 1019.35 1019.89 1020.35 1020.86 1021.47 1021.61 1022.15 1022.41
1017.38 1017.22 1016.63 1016.17 1015.49 1015.30 1015.57 1015.35 1015.10 1014.55 1014.36 1014.60 1016.27 1017.34 1018.03 1018.61 1019.26 1019.29 1018.90 1018.54 1018.36 1018.02 1017.34 1016.66 1016.05 1015.34 1015.02 1014.92 1015.02 1015.19 1015.19 1015.20 1015.13 1015.37 1015.64 1015.73 1016.14 1016.69 1017.21 1017.94 1018.52 1019.02 1019.77 1020.46 1020.91 1021.31 1021.82 1022.06 1022.37
1017.22 1017.21 1016.87 1016.13 1015.37 1015.30 1015.36 1015.42 1015.07 1014.50 1014.46 1015.33 1016.82 1018.01 1019.01 1019.62 1020.10 1019.84 1019.60 1019.31 1019.03 1018.62 1018.30 1017.97 1017.25 1016.87 1016.07 1015.85 1016.11 1016.12 1016.41 1016.24 1016.19 1015.74 1015.63 1015.99 1016.31 1016.68 1017.30 1017.73 1018.07 1018.68 1019.28 1019.84 1020.51 1021.15 1021.73 1022.23 1022.49
1017.19 1017.20 1017.00 1016.35 1015.62 1015.84 1015.53 1015.65 1014.84 1014.43 1014.74 1015.54 1016.93 1018.17 1019.13 1019.94 1020.12 1020.46 1020.27 1020.31 1020.08 1019.91 1019.47 1019.13 1018.81 1018.17 1017.62 1017.18 1017.13 1017.00 1017.06 1017.13 1017.23 1016.82 1016.65 1016.54 1016.63 1016.91 1017.20 1017.67 1018.14 1018.58 1019.22 1019.69 1020.07 1020.61 1021.49 1021.85 1022.14
1016.63 1016.87 1016.86 1016.90 1016.36 1016.16 1016.28 1016.23 1015.48 1014.77 1016.07 1017.06 1018.27 1018.88 1019.73 1020.22 1020.62 1020.88 1021.17 1021.25 1021.01 1020.79 1020.59 1020.18 1019.85 1019.47 1019.05 1018.34 1017.90 1017.87 1017.60 1017.74 1017.85 1017.81 1017.62 1017.43 1017.28 1017.09 1017.41 1017.71 1018.13 1018.57 1018.84 1019.29 1019.72 1020.02 1020.47 1021.39 1021.70
1016.80 1016.22 1016.40 1016.94 1017.29 1017.55 1017.31 1016.90 1016.23 1015.94 1017.29 1018.23 1019.19 1019.90 1020.54 1020.91 1021.25 1021.58 1021.95 1021.93 1022.10 1022.15 1021.68 1021.27 1020.91 1020.47 1020.19 1019.78 1019.31 1019.20 1019.62 1019.78 1019.77 1019.28 1018.90 1018.61 1018.16 1017.93 1017.90 1018.02 1018.18 1018.43 1018.87 1019.21 1019.30 1019.60 1020.08 1020.58 1021.24
1016.36 1016.50 1017.01 1017.29 1017.90 1018.32 1018.21 1018.39 1016.26 1016.51 1018.02 1018.81 1019.52 1020.27 1021.11 1021.53 1021.69 1021.95 1022.23 1022.61 1022.67 1022.60 1022.70 1022.35 1022.01 1021.57 1021.30 1021.02 1020.90 1020.67 1020.47 1020.59 1020.37 1020.19 1020.01 1019.74 1019.25 1018.91 1018.69 1018.58 1018.40 1018.56 1018.77 1019.09 1019.25 1019.55 1019.82 1020.00 1020.39
1016.32 1016.88 1017.44 1018.08 1019.01 1019.40 1018.13 1018.50 1016.75 1016.59 1017.34 1019.18 1020.22 1021.07 1021.67 1022.06 1022.52 1022.68 1022.87 1023.05 1023.28 1023.33 1023.16 1022.90 1022.59 1022.52 1022.24 1022.10 1022.18 1021.97 1021.66 1021.67 1021.46 1021.10 1020.91 1020.90 1020.75 1020.22 1019.89 1019.67 1019.40 1018.83 1018.45 1018.82 1019.00 1019.26 1019.42 1019.54 1019.68
1016.70 1017.76 1018.67 1019.66 1020.21 1019.29 1018.54 1018.47 1017.11 1016.66 1017.05 1018.70 1020.57 1021.58 1022.12 1022.47 1022.91 1023.30 1023.52 1023.90 1024.09 1024.11 1024.21 1024.00 1023.65 1023.41 1023.09 1023.15 1023.02 1023.03 1022.71 1022.71 1022.54 1022.36 1022.22 1022.03 1021.72 1021.37 1021.22 1020.73 1020.34 1019.99 1019.15 1018.70 1018.85 1019.10 1019.21 1019.26 1019.30
1016.84 1017.60 1018.83 1020.11 1021.10 1020.26 1019.41 1018.87 1018.02 1018.44 1018.46 1019.97 1021.64 1022.17 1022.59 1022.99 1023.40 1023.70 1023.95 1024.12 1024.52 1024.60 1024.45 1024.40 1024.22 1023.84 1023.80 1023.81 1024.01 1024.02 1023.94 1023.73 1023.78 1023.51 1023.21 1023.01 1022.74 1022.26 1021.74 1021.42 1020.94 1020.59 1019.51 1018.95 1018.83 1019.01 1019.05 1019.15 1018.88
1016.79 1017.65 1018.47 1019.87 1021.22 1021.27 1019.66 1019.03 1019.66 1019.74 1020.04 1020.96 1022.34 1022.57 1022.94 1023.23 1023.76 1023.94 1024.27 1024.42 1024.66 1025.02 1025.16 1025.18 1025.29 1025.08 1024.66 1024.62 1024.33 1024.31 1024.25 1024.76 1024.86 1024.21 1023.92 1023.78 1023.31 1022.61 1022.13 1021.72 1021.45 1020.58 1019.70 1019.46 1019.27 1019.13 1018.95 1018.95 1018.79
1016.79 1017.60 1018.90 1020.32 1021.51 1021.49 1019.91 1019.46 1019.22 1020.59 1020.89 1021.60 1022.52 1022.73 1023.04 1023.29 1023.73 1023.86 1024.03 1024.41 1024.70 1024.94 1025.18 1025.19 1024.99 1025.12 1025.22 1025.08 1025.32 1025.45 1025.51 1025.28 1024.96 1024.81 1024.37 1023.85 1023.57 1023.25 1022.80 1022.22 1021.56 1020.94 1020.02 1019.45 1019.27 1019.21 1019.09 1018.93 1018.52
1017.71 1017.94 1018.73 1019.68 1020.72 1020.83 1020.61 1019.50 1018.97 1019.80 1020.53 1021.33 1021.96 1022.35 1022.67 1023.03 1023.36 1023.82 1024.08 1024.41 1024.70 1024.91 1025.09 1025.34 1025.60 1025.30 1025.27 1025.35 1025.33 1025.63 1025.73 1025.15 1025.14 1025.00 1024.71 1024.47 1023.82 1023.39 1022.83 1022.32 1021.69 1021.18 1020.26 1019.99 1019.67 1019.31 1018.79 1018.77 1018.76
1017.97 1018.50 1019.21 1020.26 1020.81 1020.87 1020.68 1019.69 1019.35 1019.76 1020.20 1020.68 1021.55 1021.86 1022.23 1022.64 1023.18 1023.47 1023.91 1024.33 1024.72 1024.96 1025.23 1025.47 1025.32 1025.33 1025.29 1025.53 1025.59 1025.37 1025.72 1025.24 1025.02 1024.86 1024.43 1024.31 1023.93 1023.48 1023.00 1022.15 1021.75 1021.14 1020.58 1020.53 1020.07 1019.61 1018.92 1018.60 1018.12
Wind_Speed
8 8 0 5 6 6 3 3 4 6 3 1 0 2 3 2 3 4 3 7 9 13 13 15 16 17 16 15 14 12 12 13 13 12 10 10 9 8 6 4 10 12 10 10 9 9 9 8 7
5 5 5 2 6 4 5 3 4 4 4 1 1 0 1 2 3 5 4 7 10 10 12 13 16 17 15 15 15 14 13 12 12 12 12 13 12 9 8 10 12 11 10 8 8 9 8 7 7
4 0 4 4 3 3 3 1 2 3 3 2 2 1 1 2 4 7 3 7 9 8 11 10 13 16 16 17 16 15 14 13 13 13 12 11 12 10 10 12 11 10 8 8 8 8 8 6 6
2 6 5 5 2 0 3 1 3 2 3 2 2 4 4 2 3 7 7 7 8 9 10 12 14 15 14 14 15 16 15 14 15 15 13 12 12 12 8 8 9 9 7 7 7 8 7 7 6
4 3 4 3 4 2 4 3 2 1 1 4 4 3 4 4 6 8 8 6 7 8 8 13 16 15 16 15 14 14 14 13 13 14 14 14 13 10 7 8 7 7 6 6 7 7 6 6 6
5 4 4 1 4 1 2 4 1 3 2 1 1 1 2 2 3 5 7 7 7 8 8 11 16 16 15 16 16 15 14 13 11 12 14 15 14 13 12 9 9 9 8 7 8 7 7 6 6
3 4 3 3 4 3 2 1 3 1 6 2 1 1 2 3 4 6 6 6 6 7 8 8 10 11 13 13 15 14 14 13 12 12 13 14 13 13 12 9 8 9 9 9 8 8 7 6 5
4 4 3 4 2 2 3 2 4 2 5 1 2 2 3 5 8 7 6 5 5 6 7 8 7 8 8 10 11 14 14 14 13 11 10 11 11 11 11 8 7 10 9 9 9 8 8 7 6
4 5 2 3 5 2 4 5 4 4 3 2 4 4 4 1 5 3 3 3 3 3 6 7 8 8 8 6 7 10 11 12 12 10 13 10 5 7 9 9 8 9 9 10 9 9 8 7 5
5 4 5 2 0 2 3 2 3 5 8 7 7 6 1 6 4 6 6 7 6 7 7 8 7 9 8 8 7 6 6 5 6 6 8 6 6 6 7 9 11 9 9 10 11 9 9 6 2
4 5 2 6 4 1 3 7 4 5 5 9 9 7 8 6 7 9 8 9 10 9 5 9 9 8 9 9 6 5 5 4 4 9 8 6 6 5 4 4 4 4 7 4 6 5 3 5 3
2 7 4 5 5 4 2 3 7 5 13 9 11 9 6 10 10 8 10 10 8 9 12 10 10 9 9 6 5 6 6 5 4 6 9 7 5 5 4 3 4 4 4 5 5 3 3 2 3
4 3 4 6 9 7 5 7 6 11 16 12 13 11 9 7 7 9 8 8 6 8 8 11 10 11 10 8 5 5 7 6 7 5 7 8 7 6 5 5 5 5 5 5 5 5 4 4 4
2 2 5 7 11 6 6 6 2 10 6 9 8 7 8 9 11 11 17 15 15 13 10 4 10 11 8 8 7 5 4 5 5 5 6 6 5 5 7 6 6 5 5 4 5 5 5 4 4
2 4 8 10 5 8 6 4 8 12 8 10 6 7 9 13 15 13 11 12 12 11 13 16 6 7 8 8 7 5 5 5 4 5 7 7 7 7 7 6 6 7 6 7 5 4 4 4 3
3 1 3 6 3 2 4 7 8 11 7 15 9 7 12 14 14 13 13 12 13 13 14 13 13 4 6 7 5 5 5 5 5 5 5 8 9 10 7 5 5 5 4 5 6 5 4 4 5
3 3 5 7 1 3 3 6 10 10 5 15 9 10 11 12 15 15 15 15 15 13 13 14 13 12 5 2 2 2 5 4 4 4 4 6 8 8 8 6 5 5 4 4 5 2 4 3 3
6 4 4 5 4 2 2 10 8 12 9 7 9 9 12 13 14 13 15 16 15 15 14 13 12 15 9 5 4 4 4 2 1 3 3 6 6 7 7 5 6 5 5 4 3 4 1 3 4
3 3 4 5 9 3 7 5 9 10 9 6 9 9 11 12 10 13 14 15 14 16 17 16 15 14 10 5 4 4 3 3 3 2 3 3 4 6 6 4 6 6 8 8 6 4 5 2 3
6 4 6 6 6 1 8 8 11 12 5 7 13 9 9 8 12 13 14 14 14 14 14 16 15 15 11 7 4 4 3 2 3 4 5 5 2 4 5 5 5 6 5 6 7 6 3 3 6
3 4 5 7 5 4 3 7 7 2 12 13 11 11 11 11 11 12 13 12 12 15 13 14 14 14 14 12 8 6 4 4 5 5 4 5 5 1 3 5 4 4 6 7 8 6 8 6 6
3 4 6 4 3 3 3 7 6 1 8 8 8 8 9 10 11 11 10 12 13 12 11 12 14 15 14 14 10 10 5 6 4 4 4 5 8 5 3 2 3 5 4 5 6 6 6 5 6
8 3 2 3 3 2 5 1 9 9 4 6 7 9 8 8 9 10 10 10 8 7 9 9 12 14 14 15 13 9 10 5 4 7 10 11 10 8 7 3 3 3 4 5 6 5 6 4 5
4 2 3 3 3 1 8 7 6 5 8 6 7 8 9 8 7 8 8 7 7 8 8 9 11 12 13 13 14 14 13 11 10 10 9 8 7 7 11 11 7 5 3 5 5 7 8 9 6
3 5 3 4 1 7 4 2 9 3 5 11 13 10 8 8 8 7 8 8 8 9 9 9 10 12 12 13 13 13 13 12 11 10 8 9 8 7 11 10 8 6 6 5 4 5 6 8 9
6 6 5 5 3 6 6 6 5 8 17 16 11 8 8 7 6 7 7 7 7 7 7 8 8 10 9 9 10 10 11 7 7 8 7 6 6 6 7 7 7 8 7 6 5 3 4 6 7
5 4 3 2 1 3 4 5 6 8 12 11 8 7 7 6 6 6 6 6 6 6 6 6 7 8 8 8 7 8 8 8 7 7 6 5 6 8 9 8 8 7 7 7 7 4 5 6 6
3 5 2 2 1 5 6 5 4 6 9 8 6 7 6 6 5 5 6 6 5 5 4 5 6 6 6 6 6 5 6 5 6 6 6 6 6 7 8 8 9 10 8 7 6 5 6 6 5
1 1 2 4 5 5 2 6 5 7 11 11 9 8 9 8 6 5 5 6 5 4 4 4 3 4 4 4 4 5 5 4 4 4 5 7 6 7 8 8 7 9 10 9 7 7 6 7 9
6 6 6 4 6 3 3 10 3 7 10 9 10 11 8 8 7 5 6 6 6 5 5 4 4 3 2 2 0 2 4 5 6 6 6 6 7 6 7 7 7 8 8 9 8 9 7 7 8
Wind_Direction
312 297 77 34 55 62 324 51 120 37 34 148 37 91 206 217 215 213 246 190 117 151 164 161 167 167 164 161 158 157 160 162 161 157 153 147 146 149 150 134 124 113 108 100 97 92 88 80 72
316 317 41 67 81 68 298 146 102 164 179 12 312 16 3 1 119 126 113 193 133 155 160 168 168 170 168 166 163 164 166 172 173 168 166 156 146 140 154 137 118 116 113 109 106 107 102 94 77
305 203 74 95 117 133 183 72 89 43 121 96 7 346 222 154 128 152 204 162 120 148 158 162 166 171 171 169 169 169 172 179 177 169 164 158 150 142 118 118 119 118 119 116 120 119 112 97 88
10 9 16 83 253 40 94 74 72 53 45 81 132 315 314 326 129 164 155 153 133 151 158 157 165 174 176 173 172 172 176 184 182 175 177 175 163 165 165 165 109 131 132 131 137 127 123 118 103
32 68 48 2 286 142 84 103 72 302 205 191 166 288 290 24 129 139 146 152 153 156 163 163 169 176 178 177 179 178 184 190 186 180 178 181 176 139 169 191 184 169 138 148 144 134 131 114 101
14 90 51 5 304 159 67 112 44 340 347 275 62 45 307 156 141 184 153 170 168 166 156 170 176 177 179 178 183 182 189 195 203 192 184 184 161 159 166 186 197 190 183 166 153 142 131 131 109
98 78 220 282 286 353 152 162 81 28 339 298 200 325 294 230 172 170 162 182 186 176 153 167 177 184 182 187 185 186 190 195 202 207 195 185 167 167 162 171 201 188 179 180 158 152 141 132 108
95 91 303 278 242 280 189 151 138 47 275 318 41 272 256 228 179 147 157 165 215 183 172 168 174 182 189 206 188 189 188 189 192 208 182 162 168 160 150 161 207 192 186 182 166 160 156 136 121
45 60 265 275 11 345 343 32 354 335 301 330 224 215 253 134 138 131 165 201 202 225 203 172 176 183 190 197 198 196 195 191 195 191 174 164 159 160 154 152 186 190 193 183 176 169 152 129 117
96 116 236 142 350 315 295 102 303 352 319 288 297 283 329 134 173 200 211 226 216 210 210 201 181 186 181 197 194 197 198 207 189 171 175 170 161 160 156 160 178 186 186 177 178 169 142 124 137
183 192 224 303 354 332 314 321 333 348 291 254 265 270 300 179 218 226 232 221 218 216 195 193 193 181 182 193 179 188 195 188 189 176 173 165 165 167 161 160 169 173 165 164 167 153 143 169 185
203 230 246 283 318 310 273 293 310 233 252 257 269 260 278 296 291 241 225 227 221 205 212 200 193 181 188 187 181 183 189 191 190 181 174 173 173 160 165 165 167 163 159 155 145 144 165 232 187
223 260 301 309 297 275 295 273 245 275 275 276 282 296 290 285 289 310 292 284 266 232 207 203 185 193 192 183 174 173 189 187 196 184 187 181 192 175 159 170 166 163 160 160 162 166 177 187 162
356 315 275 269 261 260 236 263 69 278 301 310 335 335 322 2 32 33 28 19 17 2 321 238 192 196 177 184 177 177 171 176 175 181 196 199 192 173 175 170 172 168 174 167 165 171 175 183 169
339 331 314 269 264 223 156 320 232 255 303 294 300 334 10 54 43 38 28 30 12 2 358 6 299 186 179 181 174 163 173 170 175 181 187 186 171 170 173 173 180 179 174 162 156 167 158 158 164
293 50 328 284 171 307 78 259 267 282 333 300 326 322 78 52 45 30 30 29 14 11 8 1 2 320 194 180 176 169 169 172 179 180 180 178 174 169 159 161 176 174 165 162 164 162 165 175 171
307 230 204 307 299 128 153 253 268 291 315 286 343 76 74 58 43 31 27 25 18 15 8 8 7 7 10 9 79 165 183 170 183 171 170 165 155 156 163 165 175 163 160 163 169 166 147 165 175
219 219 285 265 277 138 224 251 279 284 294 289 76 71 73 64 47 38 33 27 19 13 16 18 19 19 9 35 43 37 40 23 138 160 171 168 163 156 162 164 170 162 154 159 163 152 148 155 169
288 254 257 268 276 329 277 264 265 270 282 29 96 92 81 68 61 46 37 31 26 23 18 16 21 12 23 11 11 21 20 4 9 12 133 148 157 160 160 174 168 163 174 178 172 142 170 171 157
223 242 278 285 277 337 280 288 287 268 301 131 127 107 100 89 63 48 42 32 28 28 26 23 17 19 21 22 3 37 42 33 29 356 27 40 143 180 164 171 183 170 148 167 170 161 147 181 185
237 217 240 230 315 310 340 302 264 326 84 86 84 96 85 78 71 55 43 34 33 29 18 27 26 25 23 21 26 15 18 21 16 3 3 2 23 151 191 184 170 180 183 189 193 181 168 192 215
254 219 218 230 80 227 50 279 282 141 90 79 79 75 81 80 72 66 51 44 36 25 20 23 25 30 26 22 37 50 45 26 348 358 3 355 352 349 19 281 223 183 190 197 197 194 191 143 190
221 105 191 227 213 76 269 257 260 108 146 138 123 109 92 83 87 79 67 52 39 34 27 21 30 33 29 32 30 32 38 27 17 19 14 6 1 351 340 340 290 221 199 214 203 194 206 188 177
143 65 331 58 108 340 233 177 268 178 174 150 123 104 97 89 77 69 61 54 41 26 30 33 38 35 33 34 27 31 38 29 27 19 19 5 1 6 11 348 323 299 247 216 211 217 215 216 218
81 85 321 350 13 217 172 185 238 40 126 134 122 110 99 88 74 67 60 42 39 34 28 31 32 35 30 34 35 27 26 24 28 23 19 11 2 2 354 347 345 323 304 273 238 232 223 217 225
174 168 160 234 232 263 346 264 297 70 83 93 94 101 92 90 94 88 80 72 51 41 43 40 33 36 32 39 35 25 24 30 24 17 9 8 2 347 341 339 338 329 339 320 289 247 247 241 230
188 173 181 123 66 55 227 286 99 79 89 98 111 108 112 106 98 97 84 84 80 76 66 59 37 25 27 23 30 29 29 19 8 10 7 355 351 353 349 344 335 334 345 338 322 299 278 260 249
140 158 91 25 221 243 275 261 210 176 143 135 140 136 135 127 130 127 121 115 98 89 89 76 75 60 36 35 24 15 4 9 5 355 1 1 341 344 341 342 345 340 341 342 340 319 304 288 270
85 225 212 170 173 199 220 257 182 161 162 165 177 171 171 171 165 155 132 119 111 95 87 108 103 81 58 34 21 0 345 4 349 340 339 337 327 328 336 332 335 337 342 338 333 313 298 297 290
185 211 182 180 261 252 220 256 139 155 171 169 186 188 189 169 160 149 137 145 154 159 158 142 139 145 148 173 47 3 319 335 334 328 323 323 318 316 315 318 319 323 330 324 323 311 301 289 282